Time,TemperatureF,DewpointF,PressureIn,WindDirection,WindDirectionDegrees,WindSpeedMPH,WindSpeedGustMPH,Humidity,HourlyPrecipIn,Conditions,Clouds,dailyrainin,SoftwareType,DateUTC
2013-08-01 00:05:00,70.9,66.8,30.02,ESE,112,0.0,0.0,87,0.00,,,0.00,WUHU21623XXSP,2013-08-01 04:05:00,
2013-08-01 00:10:00,70.9,66.8,30.01,ESE,112,0.0,0.0,87,0.00,,,0.00,WUHU21623XXSP,2013-08-01 04:10:00,
2013-08-01 00:15:00,70.9,66.8,30.01,ESE,112,0.0,0.0,87,0.00,,,0.00,WUHU21623XXSP,2013-08-01 04:15:00,
2013-08-01 00:20:00,70.9,66.8,30.02,South,180,0.0,0.0,87,0.00,,,0.00,WUHU21623XXSP,2013-08-01 04:20:00,
2013-08-01 00:25:00,70.9,66.8,30.02,NNE,22,0.0,0.0,87,0.00,,,0.00,WUHU21623XXSP,2013-08-01 04:25:00,
2013-08-01 00:30:00,70.9,66.8,30.01,ESE,112,0.0,0.0,87,0.00,,,0.00,WUHU21623XXSP,2013-08-01 04:30:00,
2013-08-01 00:35:00,70.9,66.8,30.01,ESE,112,0.0,0.0,87,0.00,,,0.00,WUHU21623XXSP,2013-08-01 04:35:00,
2013-08-01 00:40:00,70.9,66.8,30.01,East,90,0.0,0.0,87,0.00,,,0.00,WUHU21623XXSP,2013-08-01 04:40:00,
2013-08-01 00:45:00,70.9,66.8,30.01,ESE,112,0.0,0.0,87,0.00,,,0.00,WUHU21623XXSP,2013-08-01 04:45:00,
2013-08-01 00:50:00,70.9,66.8,30.01,ESE,112,0.0,0.0,87,0.00,,,0.00,WUHU21623XXSP,2013-08-01 04:50:00,
2013-08-01 00:55:00,70.7,66.6,30.01,NNE,22,0.0,0.0,87,0.00,,,0.00,WUHU21623XXSP,2013-08-01 04:55:00,
2013-08-01 01:00:00,70.7,66.6,30.01,ESE,112,0.0,0.0,87,0.00,,,0.00,WUHU21623XXSP,2013-08-01 05:00:00,
2013-08-01 01:05:00,70.7,67.0,30.01,SSW,202,0.0,0.0,88,0.00,,,0.00,WUHU21623XXSP,2013-08-01 05:05:00,
2013-08-01 01:10:00,70.5,66.4,30.00,NNE,22,0.0,0.0,87,0.00,,,0.00,WUHU21623XXSP,2013-08-01 05:10:00,
2013-08-01 01:15:00,70.5,66.4,30.00,NNE,22,0.0,0.0,87,0.00,,,0.00,WUHU21623XXSP,2013-08-01 05:15:00,
2013-08-01 01:20:00,70.5,66.4,30.00,NNE,22,0.0,0.0,87,0.00,,,0.00,WUHU21623XXSP,2013-08-01 05:20:00,
2013-08-01 01:25:00,70.5,66.4,30.00,North,0,0.0,0.0,87,0.00,,,0.00,WUHU21623XXSP,2013-08-01 05:25:00,
2013-08-01 01:30:00,70.5,66.4,30.00,North,0,0.0,0.0,87,0.00,,,0.00,WUHU21623XXSP,2013-08-01 05:30:00,
2013-08-01 01:35:00,70.5,66.4,29.99,ESE,112,0.0,0.0,87,0.00,,,0.00,WUHU21623XXSP,2013-08-01 05:35:00,
2013-08-01 01:40:00,70.5,66.4,29.99,ESE,112,0.0,0.0,87,0.00,,,0.00,WUHU21623XXSP,2013-08-01 05:40:00,
2013-08-01 01:45:00,70.5,66.4,29.99,NNE,22,0.0,0.0,87,0.00,,,0.00,WUHU21623XXSP,2013-08-01 05:45:00,
2013-08-01 01:50:00,70.5,66.4,29.99,ESE,112,0.0,0.0,87,0.00,,,0.00,WUHU21623XXSP,2013-08-01 05:50:00,
2013-08-01 01:55:00,70.5,66.4,29.98,East,90,0.0,0.0,87,0.00,,,0.00,WUHU21623XXSP,2013-08-01 05:55:00,
2013-08-01 02:00:00,70.5,66.4,29.98,East,90,0.0,0.0,87,0.00,,,0.00,WUHU21623XXSP,2013-08-01 06:00:00,
2013-08-01 02:05:00,70.5,66.4,29.98,WNW,292,0.0,0.0,87,0.00,,,0.00,WUHU21623XXSP,2013-08-01 06:05:00,
2013-08-01 02:10:00,70.5,66.4,29.99,WNW,292,0.0,0.0,87,0.00,,,0.00,WUHU21623XXSP,2013-08-01 06:10:00,
2013-08-01 02:15:00,70.3,66.3,29.99,WNW,292,0.0,0.0,87,0.00,,,0.00,WUHU21623XXSP,2013-08-01 06:15:00,
2013-08-01 02:20:00,70.3,66.6,29.99,SSW,202,0.0,0.0,88,0.00,,,0.00,WUHU21623XXSP,2013-08-01 06:20:00,
2013-08-01 02:25:00,70.3,66.6,29.99,North,0,0.0,0.0,88,0.00,,,0.00,WUHU21623XXSP,2013-08-01 06:25:00,
2013-08-01 02:30:00,70.3,66.6,29.99,ESE,112,0.0,0.0,88,0.00,,,0.00,WUHU21623XXSP,2013-08-01 06:30:00,
2013-08-01 02:35:00,70.3,66.3,29.99,East,90,0.0,0.0,87,0.00,,,0.00,WUHU21623XXSP,2013-08-01 06:35:00,
2013-08-01 02:40:00,70.3,66.3,29.99,East,90,0.0,0.0,87,0.00,,,0.00,WUHU21623XXSP,2013-08-01 06:40:00,
2013-08-01 02:46:00,70.5,66.4,29.99,SSW,202,0.0,0.0,87,0.00,,,0.00,WUHU21623XXSP,2013-08-01 06:46:00,
2013-08-01 02:51:00,70.5,66.4,29.99,East,90,0.0,0.0,87,0.00,,,0.00,WUHU21623XXSP,2013-08-01 06:51:00,
2013-08-01 02:56:00,70.5,66.4,29.99,NNE,22,0.0,0.0,87,0.00,,,0.00,WUHU21623XXSP,2013-08-01 06:56:00,
2013-08-01 03:01:00,70.5,66.4,29.98,East,90,0.0,0.0,87,0.00,,,0.00,WUHU21623XXSP,2013-08-01 07:01:00,
2013-08-01 03:06:00,70.5,66.4,29.99,East,90,0.0,0.0,87,0.00,,,0.00,WUHU21623XXSP,2013-08-01 07:06:00,
2013-08-01 03:11:00,70.5,66.4,29.99,East,90,0.0,0.0,87,0.00,,,0.00,WUHU21623XXSP,2013-08-01 07:11:00,
2013-08-01 03:16:00,70.5,66.8,29.99,ESE,112,0.0,0.0,88,0.00,,,0.00,WUHU21623XXSP,2013-08-01 07:16:00,
2013-08-01 03:21:00,70.5,66.8,29.98,East,90,0.0,0.0,88,0.00,,,0.00,WUHU21623XXSP,2013-08-01 07:21:00,
2013-08-01 03:26:00,70.5,66.8,29.98,NNE,22,0.0,0.0,88,0.00,,,0.00,WUHU21623XXSP,2013-08-01 07:26:00,
2013-08-01 03:31:00,70.5,66.8,29.99,NNE,22,0.0,0.0,88,0.00,,,0.00,WUHU21623XXSP,2013-08-01 07:31:00,
2013-08-01 03:36:00,70.3,66.6,29.98,WNW,292,0.0,0.0,88,0.00,,,0.00,WUHU21623XXSP,2013-08-01 07:36:00,
2013-08-01 03:41:00,70.3,66.6,29.98,WNW,292,0.0,0.0,88,0.00,,,0.00,WUHU21623XXSP,2013-08-01 07:41:00,
2013-08-01 03:46:00,70.3,66.6,29.98,North,0,0.0,0.0,88,0.00,,,0.00,WUHU21623XXSP,2013-08-01 07:46:00,
2013-08-01 03:51:00,70.3,66.6,29.98,South,180,0.0,0.0,88,0.16,,,0.16,WUHU21623XXSP,2013-08-01 07:51:00,
2013-08-01 03:57:00,70.3,66.6,29.98,North,0,0.0,0.0,88,0.18,,,0.18,WUHU21623XXSP,2013-08-01 07:57:00,
2013-08-01 04:02:00,70.3,66.3,29.98,ESE,112,0.0,0.0,87,0.18,,,0.18,WUHU21623XXSP,2013-08-01 08:02:00,
2013-08-01 04:07:00,70.3,66.3,29.98,ESE,112,0.0,0.0,87,0.18,,,0.18,WUHU21623XXSP,2013-08-01 08:07:00,
2013-08-01 04:12:00,70.3,66.3,29.99,East,90,0.0,0.0,87,0.18,,,0.18,WUHU21623XXSP,2013-08-01 08:12:00,
2013-08-01 04:17:00,70.3,66.3,29.98,East,90,0.0,0.0,87,0.21,,,0.21,WUHU21623XXSP,2013-08-01 08:17:00,
2013-08-01 04:22:00,70.3,66.3,29.98,ESE,112,0.0,0.0,87,0.21,,,0.21,WUHU21623XXSP,2013-08-01 08:22:00,
2013-08-01 04:27:00,70.3,66.3,29.98,ESE,112,0.0,0.0,87,0.21,,,0.21,WUHU21623XXSP,2013-08-01 08:27:00,
2013-08-01 04:32:00,70.3,66.3,29.98,ESE,112,0.0,0.0,87,0.21,,,0.21,WUHU21623XXSP,2013-08-01 08:32:00,
2013-08-01 04:38:00,70.3,66.3,29.98,ESE,112,0.0,0.0,87,0.21,,,0.21,WUHU21623XXSP,2013-08-01 08:38:00,
2013-08-01 04:43:00,70.3,66.3,29.98,ESE,112,0.0,0.0,87,0.21,,,0.21,WUHU21623XXSP,2013-08-01 08:43:00,
2013-08-01 04:48:00,70.3,66.3,29.97,East,90,0.0,0.0,87,0.13,,,0.21,WUHU21623XXSP,2013-08-01 08:48:00,
2013-08-01 04:53:00,70.3,66.3,29.97,NNE,22,0.0,0.0,87,0.05,,,0.21,WUHU21623XXSP,2013-08-01 08:53:00,
2013-08-01 04:59:00,70.3,66.3,29.98,NNE,22,0.0,0.0,87,0.03,,,0.21,WUHU21623XXSP,2013-08-01 08:59:00,
2013-08-01 05:04:00,70.5,66.4,29.97,East,90,0.0,0.0,87,0.03,,,0.21,WUHU21623XXSP,2013-08-01 09:04:00,
2013-08-01 05:10:00,70.5,66.4,29.97,NNE,22,0.0,0.0,87,0.03,,,0.21,WUHU21623XXSP,2013-08-01 09:10:00,
2013-08-01 05:16:00,70.5,66.4,29.97,NNE,22,0.0,0.0,87,0.00,,,0.21,WUHU21623XXSP,2013-08-01 09:16:00,
2013-08-01 05:21:00,70.5,66.4,29.97,NNE,22,0.0,0.0,87,0.00,,,0.21,WUHU21623XXSP,2013-08-01 09:21:00,
2013-08-01 05:26:00,70.5,66.4,29.97,NNE,22,0.0,0.0,87,0.00,,,0.21,WUHU21623XXSP,2013-08-01 09:26:00,
2013-08-01 05:31:00,70.5,66.4,29.97,East,90,0.0,0.0,87,0.00,,,0.21,WUHU21623XXSP,2013-08-01 09:31:00,
2013-08-01 05:36:00,70.5,66.8,29.98,East,90,0.0,0.0,88,0.00,,,0.21,WUHU21623XXSP,2013-08-01 09:36:00,
2013-08-01 05:41:00,70.5,66.4,29.98,East,90,0.0,0.0,87,0.00,,,0.21,WUHU21623XXSP,2013-08-01 09:41:00,
2013-08-01 05:47:00,70.5,66.4,29.98,East,90,0.0,0.0,87,0.00,,,0.21,WUHU21623XXSP,2013-08-01 09:47:00,
2013-08-01 05:52:00,70.5,66.4,29.98,East,90,0.0,0.0,87,0.00,,,0.21,WUHU21623XXSP,2013-08-01 09:52:00,
2013-08-01 05:57:00,70.5,66.8,29.98,South,180,0.0,0.0,88,0.00,,,0.21,WUHU21623XXSP,2013-08-01 09:57:00,
2013-08-01 06:04:00,70.5,66.4,29.98,South,180,0.0,0.0,87,0.00,,,0.21,WUHU21623XXSP,2013-08-01 10:04:00,
2013-08-01 06:09:00,70.5,66.8,29.98,SSW,202,0.0,0.0,88,0.00,,,0.21,WUHU21623XXSP,2013-08-01 10:09:00,
2013-08-01 06:14:00,70.5,66.8,29.98,West,270,0.0,0.0,88,0.00,,,0.21,WUHU21623XXSP,2013-08-01 10:14:00,
2013-08-01 06:19:00,70.5,66.8,29.98,South,180,0.0,0.0,88,0.00,,,0.21,WUHU21623XXSP,2013-08-01 10:19:00,
2013-08-01 06:24:00,70.5,66.8,29.98,South,180,0.0,0.0,88,0.00,,,0.21,WUHU21623XXSP,2013-08-01 10:24:00,
2013-08-01 06:31:00,70.5,66.8,29.98,NNE,22,0.0,0.0,88,0.00,,,0.21,WUHU21623XXSP,2013-08-01 10:31:00,
2013-08-01 06:36:00,70.5,66.8,29.98,North,0,0.0,0.0,88,0.00,,,0.21,WUHU21623XXSP,2013-08-01 10:36:00,
2013-08-01 06:41:00,70.5,66.8,29.98,North,0,0.0,0.0,88,0.00,,,0.21,WUHU21623XXSP,2013-08-01 10:41:00,
2013-08-01 06:46:00,70.5,66.8,29.99,North,0,0.0,0.0,88,0.00,,,0.21,WUHU21623XXSP,2013-08-01 10:46:00,
2013-08-01 06:52:00,70.5,66.8,29.99,North,0,0.0,0.0,88,0.00,,,0.21,WUHU21623XXSP,2013-08-01 10:52:00,
2013-08-01 06:57:00,70.5,66.8,29.99,NNE,22,0.0,0.0,88,0.00,,,0.21,WUHU21623XXSP,2013-08-01 10:57:00,
2013-08-01 07:03:00,70.5,66.8,29.99,East,90,0.0,0.0,88,0.00,,,0.21,WUHU21623XXSP,2013-08-01 11:03:00,
2013-08-01 07:08:00,70.7,67.0,29.99,NNE,22,0.0,0.0,88,0.00,,,0.21,WUHU21623XXSP,2013-08-01 11:08:00,
2013-08-01 07:13:00,70.7,67.0,29.99,NNE,22,0.0,0.0,88,0.00,,,0.21,WUHU21623XXSP,2013-08-01 11:13:00,
2013-08-01 07:18:00,70.7,67.0,29.99,NNE,22,0.0,0.0,88,0.00,,,0.21,WUHU21623XXSP,2013-08-01 11:18:00,
2013-08-01 07:23:00,70.7,67.0,30.00,North,0,0.0,0.0,88,0.00,,,0.21,WUHU21623XXSP,2013-08-01 11:23:00,
2013-08-01 07:28:00,70.7,67.0,30.00,NNE,22,0.0,0.0,88,0.00,,,0.21,WUHU21623XXSP,2013-08-01 11:28:00,
2013-08-01 07:33:00,70.9,67.1,30.00,ESE,112,0.0,0.0,88,0.00,,,0.21,WUHU21623XXSP,2013-08-01 11:33:00,
2013-08-01 07:38:00,70.9,67.1,30.00,ESE,112,0.0,0.0,88,0.00,,,0.21,WUHU21623XXSP,2013-08-01 11:38:00,
2013-08-01 07:43:00,70.9,67.1,30.00,SSW,202,0.0,0.0,88,0.00,,,0.21,WUHU21623XXSP,2013-08-01 11:43:00,
2013-08-01 07:48:00,71.1,67.3,30.00,NNE,22,0.0,0.0,88,0.00,,,0.21,WUHU21623XXSP,2013-08-01 11:48:00,
2013-08-01 07:54:00,71.1,67.3,30.00,East,90,0.0,0.0,88,0.00,,,0.21,WUHU21623XXSP,2013-08-01 11:54:00,
2013-08-01 07:59:00,71.2,67.5,30.00,North,0,0.0,0.0,88,0.00,,,0.21,WUHU21623XXSP,2013-08-01 11:59:00,
2013-08-01 08:04:00,71.2,67.5,30.00,East,90,0.0,0.0,88,0.00,,,0.21,WUHU21623XXSP,2013-08-01 12:04:00,
2013-08-01 08:09:00,71.2,67.5,30.00,ESE,112,0.0,0.0,88,0.00,,,0.21,WUHU21623XXSP,2013-08-01 12:09:00,
2013-08-01 08:14:00,71.4,67.7,30.01,SSW,202,0.0,0.0,88,0.00,,,0.21,WUHU21623XXSP,2013-08-01 12:14:00,
2013-08-01 08:20:00,71.4,67.7,30.01,SSW,202,0.0,0.0,88,0.00,,,0.21,WUHU21623XXSP,2013-08-01 12:20:00,
2013-08-01 08:25:00,71.4,67.7,30.01,ESE,112,0.0,0.0,88,0.00,,,0.21,WUHU21623XXSP,2013-08-01 12:25:00,
2013-08-01 08:30:00,71.6,67.9,30.01,North,0,0.0,0.0,88,0.00,,,0.21,WUHU21623XXSP,2013-08-01 12:30:00,
2013-08-01 08:35:00,71.4,67.3,30.01,WNW,292,0.0,0.0,87,0.00,,,0.21,WUHU21623XXSP,2013-08-01 12:35:00,
2013-08-01 08:40:00,71.8,67.7,30.01,ESE,112,0.0,0.0,87,0.00,,,0.21,WUHU21623XXSP,2013-08-01 12:40:00,
2013-08-01 08:45:00,71.8,67.7,30.01,NNE,22,0.0,0.0,87,0.00,,,0.21,WUHU21623XXSP,2013-08-01 12:45:00,
2013-08-01 08:52:00,72.1,68.1,30.01,South,180,0.0,0.0,87,0.00,,,0.21,WUHU21623XXSP,2013-08-01 12:52:00,
2013-08-01 08:57:00,72.3,68.6,30.01,WNW,292,0.0,0.0,88,0.00,,,0.21,WUHU21623XXSP,2013-08-01 12:57:00,
2013-08-01 09:02:00,72.7,68.9,30.01,WNW,292,0.0,0.0,88,0.00,,,0.21,WUHU21623XXSP,2013-08-01 13:02:00,
2013-08-01 09:07:00,72.7,68.9,30.01,West,270,0.0,0.0,88,0.00,,,0.21,WUHU21623XXSP,2013-08-01 13:07:00,
2013-08-01 09:12:00,73.2,69.5,30.01,WNW,292,0.0,0.0,88,0.00,,,0.21,WUHU21623XXSP,2013-08-01 13:12:00,
2013-08-01 09:18:00,73.6,69.8,30.01,North,0,0.0,0.0,88,0.00,,,0.21,WUHU21623XXSP,2013-08-01 13:18:00,
2013-08-01 09:23:00,73.6,69.8,30.01,North,0,0.0,0.0,88,0.00,,,0.21,WUHU21623XXSP,2013-08-01 13:23:00,
2013-08-01 09:28:00,73.6,69.8,30.01,WNW,292,0.0,0.0,88,0.00,,,0.21,WUHU21623XXSP,2013-08-01 13:28:00,
2013-08-01 09:34:00,73.9,70.2,30.01,SSW,202,0.0,0.0,88,0.00,,,0.21,WUHU21623XXSP,2013-08-01 13:34:00,
2013-08-01 09:39:00,74.1,70.4,30.01,WNW,292,0.0,0.0,88,0.00,,,0.21,WUHU21623XXSP,2013-08-01 13:39:00,
2013-08-01 09:45:00,74.5,70.4,30.01,West,270,0.0,0.0,87,0.00,,,0.21,WUHU21623XXSP,2013-08-01 13:45:00,
2013-08-01 09:50:00,74.8,70.8,30.01,SSW,202,1.2,1.3,87,0.00,,,0.21,WUHU21623XXSP,2013-08-01 13:50:00,
2013-08-01 09:55:00,75.7,72.0,30.01,WNW,292,0.0,1.3,88,0.00,,,0.21,WUHU21623XXSP,2013-08-01 13:55:00,
2013-08-01 10:00:00,76.5,72.7,30.01,WNW,292,0.0,0.0,88,0.00,,,0.21,WUHU21623XXSP,2013-08-01 14:00:00,
2013-08-01 10:05:00,78.1,74.3,30.01,South,180,0.0,0.0,88,0.00,,,0.21,WUHU21623XXSP,2013-08-01 14:05:00,
2013-08-01 10:11:00,78.6,74.8,30.00,North,0,0.0,0.0,88,0.00,,,0.21,WUHU21623XXSP,2013-08-01 14:11:00,
2013-08-01 10:16:00,79.0,73.7,30.01,North,0,0.0,0.0,84,0.00,,,0.21,WUHU21623XXSP,2013-08-01 14:16:00,
2013-08-01 10:21:00,78.1,73.2,30.01,North,0,0.0,1.3,85,0.00,,,0.21,WUHU21623XXSP,2013-08-01 14:21:00,
2013-08-01 10:27:00,78.1,73.9,30.01,WNW,292,0.0,1.3,87,0.00,,,0.21,WUHU21623XXSP,2013-08-01 14:27:00,
2013-08-01 10:32:00,78.4,73.9,30.01,North,0,0.0,0.0,86,0.00,,,0.21,WUHU21623XXSP,2013-08-01 14:32:00,
2013-08-01 10:37:00,78.6,74.1,30.01,WNW,292,1.2,1.3,86,0.00,,,0.21,WUHU21623XXSP,2013-08-01 14:37:00,
2013-08-01 10:42:00,79.3,73.7,30.01,WNW,292,0.0,1.3,83,0.00,,,0.21,WUHU21623XXSP,2013-08-01 14:42:00,
2013-08-01 10:48:00,80.2,73.6,30.01,North,0,0.0,0.0,80,0.00,,,0.21,WUHU21623XXSP,2013-08-01 14:48:00,
2013-08-01 10:53:00,80.4,72.6,30.01,NNE,22,0.0,1.7,77,0.00,,,0.21,WUHU21623XXSP,2013-08-01 14:53:00,
2013-08-01 10:59:00,80.4,73.4,30.01,NNE,22,0.9,1.7,79,0.00,,,0.21,WUHU21623XXSP,2013-08-01 14:59:00,
2013-08-01 11:04:00,81.1,74.1,30.01,North,0,0.0,1.7,79,0.00,,,0.21,WUHU21623XXSP,2013-08-01 15:04:00,
2013-08-01 11:09:00,80.8,73.7,30.01,WNW,292,0.0,0.0,79,0.00,,,0.21,WUHU21623XXSP,2013-08-01 15:09:00,
2013-08-01 11:14:00,80.6,73.5,30.01,WNW,292,0.0,1.7,79,0.00,,,0.21,WUHU21623XXSP,2013-08-01 15:14:00,
2013-08-01 11:19:00,80.2,72.4,30.02,North,0,0.0,1.7,77,0.00,,,0.21,WUHU21623XXSP,2013-08-01 15:19:00,
2013-08-01 11:24:00,80.4,71.8,30.02,NNE,22,0.0,0.0,75,0.00,,,0.21,WUHU21623XXSP,2013-08-01 15:24:00,
2013-08-01 11:29:00,81.3,73.0,30.02,WNW,292,0.9,1.7,76,0.00,,,0.21,WUHU21623XXSP,2013-08-01 15:29:00,
2013-08-01 11:35:00,81.3,73.0,30.02,WNW,292,0.9,1.7,76,0.00,,,0.21,WUHU21623XXSP,2013-08-01 15:35:00,
2013-08-01 11:40:00,82.0,73.7,30.02,WNW,292,2.1,2.4,76,0.00,,,0.21,WUHU21623XXSP,2013-08-01 15:40:00,
2013-08-01 11:45:00,82.2,73.5,30.02,WNW,292,1.2,2.4,75,0.00,,,0.21,WUHU21623XXSP,2013-08-01 15:45:00,
2013-08-01 11:50:00,82.2,72.7,30.02,WNW,292,1.2,2.4,73,0.00,,,0.21,WUHU21623XXSP,2013-08-01 15:50:00,
2013-08-01 11:57:00,82.8,73.2,30.02,WNW,292,1.2,2.7,73,0.00,,,0.21,WUHU21623XXSP,2013-08-01 15:57:00,
2013-08-01 12:02:00,83.5,73.5,30.02,North,0,0.0,2.7,72,0.00,,,0.21,WUHU21623XXSP,2013-08-01 16:02:00,
2013-08-01 12:07:00,83.1,72.7,30.03,WNW,292,0.0,1.9,71,0.00,,,0.21,WUHU21623XXSP,2013-08-01 16:07:00,
2013-08-01 12:12:00,81.5,71.6,30.03,WNW,292,0.0,1.7,72,0.00,,,0.21,WUHU21623XXSP,2013-08-01 16:12:00,
2013-08-01 12:17:00,82.2,72.7,30.03,WNW,292,0.0,0.0,73,0.00,,,0.21,WUHU21623XXSP,2013-08-01 16:17:00,
2013-08-01 12:22:00,83.1,72.7,30.03,North,0,0.9,1.9,71,0.00,,,0.21,WUHU21623XXSP,2013-08-01 16:22:00,
2013-08-01 12:27:00,82.6,71.8,30.03,NNE,22,0.0,1.9,70,0.00,,,0.21,WUHU21623XXSP,2013-08-01 16:27:00,
2013-08-01 12:33:00,81.7,71.3,30.03,WNW,292,1.4,1.7,71,0.00,,,0.21,WUHU21623XXSP,2013-08-01 16:33:00,
2013-08-01 12:38:00,82.2,72.2,30.02,NNE,22,0.0,1.7,72,0.00,,,0.21,WUHU21623XXSP,2013-08-01 16:38:00,
2013-08-01 12:43:00,82.6,72.6,30.02,ESE,112,1.2,4.4,72,0.00,,,0.21,WUHU21623XXSP,2013-08-01 16:43:00,
2013-08-01 12:48:00,83.7,72.4,30.02,SSW,202,0.0,4.4,69,0.00,,,0.21,WUHU21623XXSP,2013-08-01 16:48:00,
2013-08-01 12:53:00,82.6,71.8,30.02,East,90,0.0,2.7,70,0.00,,,0.21,WUHU21623XXSP,2013-08-01 16:53:00,
2013-08-01 12:59:00,81.3,71.4,30.02,North,0,0.0,2.7,72,0.00,,,0.21,WUHU21623XXSP,2013-08-01 16:59:00,
2013-08-01 13:04:00,81.0,71.1,30.02,SSW,202,1.4,2.7,72,0.00,,,0.21,WUHU21623XXSP,2013-08-01 17:04:00,
2013-08-01 13:09:00,81.1,71.3,30.02,WNW,292,0.0,1.7,72,0.00,,,0.21,WUHU21623XXSP,2013-08-01 17:09:00,
2013-08-01 13:14:00,81.3,72.6,30.02,North,0,0.0,1.7,75,0.00,,,0.21,WUHU21623XXSP,2013-08-01 17:14:00,
2013-08-01 13:19:00,81.7,73.0,30.02,North,0,2.6,3.0,75,0.00,,,0.21,WUHU21623XXSP,2013-08-01 17:19:00,
2013-08-01 13:24:00,83.3,72.9,30.02,WNW,292,0.0,3.0,71,0.00,,,0.21,WUHU21623XXSP,2013-08-01 17:24:00,
2013-08-01 13:29:00,84.4,73.6,30.02,North,0,1.2,3.0,70,0.00,,,0.21,WUHU21623XXSP,2013-08-01 17:29:00,
2013-08-01 13:35:00,84.9,73.7,30.02,North,0,1.4,2.4,69,0.00,,,0.21,WUHU21623XXSP,2013-08-01 17:35:00,
2013-08-01 13:40:00,85.6,73.9,30.01,SSW,202,2.6,3.0,68,0.00,,,0.21,WUHU21623XXSP,2013-08-01 17:40:00,
2013-08-01 13:45:00,84.9,73.2,30.02,WNW,292,0.0,11.7,68,0.00,,,0.21,WUHU21623XXSP,2013-08-01 17:45:00,
2013-08-01 13:50:00,85.1,72.5,30.01,WNW,292,0.0,11.7,66,0.00,,,0.21,WUHU21623XXSP,2013-08-01 17:50:00,
2013-08-01 13:55:00,84.7,72.1,30.01,WNW,292,0.0,0.0,66,0.00,,,0.21,WUHU21623XXSP,2013-08-01 17:55:00,
2013-08-01 14:00:00,85.5,72.8,30.01,WNW,292,0.0,1.3,66,0.00,,,0.21,WUHU21623XXSP,2013-08-01 18:00:00,
2013-08-01 14:06:00,85.8,74.1,30.01,West,270,0.0,1.7,68,0.00,,,0.21,WUHU21623XXSP,2013-08-01 18:06:00,
2013-08-01 14:11:00,86.2,73.0,30.01,East,90,1.4,1.7,65,0.00,,,0.21,WUHU21623XXSP,2013-08-01 18:11:00,
2013-08-01 14:16:00,86.4,73.7,30.01,WNW,292,0.0,1.7,66,0.00,,,0.21,WUHU21623XXSP,2013-08-01 18:16:00,
2013-08-01 14:21:00,86.4,73.2,30.01,NNE,22,0.0,1.7,65,0.00,,,0.21,WUHU21623XXSP,2013-08-01 18:21:00,
2013-08-01 14:27:00,84.9,72.3,30.00,North,0,1.2,1.3,66,0.00,,,0.21,WUHU21623XXSP,2013-08-01 18:27:00,
2013-08-01 14:32:00,85.3,72.2,30.00,North,0,0.0,1.3,65,0.00,,,0.21,WUHU21623XXSP,2013-08-01 18:32:00,
2013-08-01 14:38:00,85.8,72.7,30.00,WNW,292,0.0,1.3,65,0.00,,,0.21,WUHU21623XXSP,2013-08-01 18:38:00,
2013-08-01 14:43:00,86.4,73.7,30.00,NNE,22,0.0,2.4,66,0.00,,,0.21,WUHU21623XXSP,2013-08-01 18:43:00,
2013-08-01 14:49:00,85.6,71.1,30.01,NNE,22,0.0,2.4,62,0.00,,,0.21,WUHU21623XXSP,2013-08-01 18:49:00,
2013-08-01 14:54:00,84.6,71.9,30.00,WNW,292,0.0,1.3,66,0.00,,,0.21,WUHU21623XXSP,2013-08-01 18:54:00,
2013-08-01 14:59:00,83.5,71.3,30.00,East,90,0.0,0.0,67,0.00,,,0.21,WUHU21623XXSP,2013-08-01 18:59:00,
2013-08-01 15:04:00,84.4,71.3,30.00,NNE,22,0.0,1.3,65,0.00,,,0.21,WUHU21623XXSP,2013-08-01 19:04:00,
2013-08-01 15:09:00,85.3,72.2,30.00,North,0,1.2,1.9,65,0.00,,,0.21,WUHU21623XXSP,2013-08-01 19:09:00,
2013-08-01 15:15:00,84.9,70.4,30.00,NNE,22,1.2,1.9,62,0.00,,,0.21,WUHU21623XXSP,2013-08-01 19:15:00,
2013-08-01 15:20:00,84.4,71.3,30.00,WNW,292,0.0,1.3,65,0.00,,,0.21,WUHU21623XXSP,2013-08-01 19:20:00,
2013-08-01 15:25:00,84.7,71.2,29.99,NNE,22,0.0,1.3,64,0.00,,,0.21,WUHU21623XXSP,2013-08-01 19:25:00,
2013-08-01 15:30:00,84.7,70.7,29.99,North,0,1.4,1.7,63,0.00,,,0.21,WUHU21623XXSP,2013-08-01 19:30:00,
2013-08-01 15:35:00,84.0,70.1,29.99,North,0,1.2,1.7,63,0.00,,,0.21,WUHU21623XXSP,2013-08-01 19:35:00,
2013-08-01 15:41:00,84.4,70.4,29.99,NNE,22,0.0,1.7,63,0.00,,,0.21,WUHU21623XXSP,2013-08-01 19:41:00,
2013-08-01 15:47:00,84.6,70.6,29.99,North,0,0.0,1.3,63,0.00,,,0.21,WUHU21623XXSP,2013-08-01 19:47:00,
2013-08-01 15:52:00,84.4,71.3,29.99,WNW,292,0.0,0.0,65,0.00,,,0.21,WUHU21623XXSP,2013-08-01 19:52:00,
2013-08-01 15:57:00,84.2,70.7,29.99,NNE,22,0.0,0.0,64,0.00,,,0.21,WUHU21623XXSP,2013-08-01 19:57:00,
2013-08-01 16:03:00,84.0,70.1,29.99,NNE,22,0.0,0.0,63,0.00,,,0.21,WUHU21623XXSP,2013-08-01 20:03:00,
2013-08-01 16:08:00,83.7,70.6,29.98,North,0,0.0,1.3,65,0.00,,,0.21,WUHU21623XXSP,2013-08-01 20:08:00,
2013-08-01 16:13:00,83.8,70.8,29.98,North,0,0.0,1.3,65,0.00,,,0.21,WUHU21623XXSP,2013-08-01 20:13:00,
2013-08-01 16:18:00,83.3,70.3,29.98,WNW,292,0.0,0.0,65,0.00,,,0.21,WUHU21623XXSP,2013-08-01 20:18:00,
2013-08-01 16:24:00,83.5,70.4,29.98,North,0,0.0,0.0,65,0.00,,,0.21,WUHU21623XXSP,2013-08-01 20:24:00,
2013-08-01 16:29:00,83.1,70.5,29.97,WNW,292,0.0,1.3,66,0.00,,,0.21,WUHU21623XXSP,2013-08-01 20:29:00,
2013-08-01 16:34:00,82.9,70.3,29.97,North,0,1.2,1.3,66,0.00,,,0.21,WUHU21623XXSP,2013-08-01 20:34:00,
2013-08-01 16:39:00,82.9,69.9,29.97,North,0,0.0,1.3,65,0.00,,,0.21,WUHU21623XXSP,2013-08-01 20:39:00,
2013-08-01 16:44:00,82.9,69.9,29.97,NNE,22,1.2,1.3,65,0.00,,,0.21,WUHU21623XXSP,2013-08-01 20:44:00,
2013-08-01 16:49:00,83.3,68.9,29.97,NNE,22,1.4,1.7,62,0.00,,,0.21,WUHU21623XXSP,2013-08-01 20:49:00,
2013-08-01 16:54:00,83.1,69.6,29.97,North,0,0.0,1.7,64,0.00,,,0.21,WUHU21623XXSP,2013-08-01 20:54:00,
2013-08-01 16:59:00,83.1,70.1,29.97,WNW,292,1.7,1.9,65,0.00,,,0.21,WUHU21623XXSP,2013-08-01 20:59:00,
2013-08-01 17:04:00,82.8,70.2,29.97,WNW,292,1.2,1.9,66,0.00,,,0.21,WUHU21623XXSP,2013-08-01 21:04:00,
2013-08-01 17:09:00,82.6,69.5,29.97,WNW,292,1.2,1.9,65,0.00,,,0.21,WUHU21623XXSP,2013-08-01 21:09:00,
2013-08-01 17:14:00,82.6,69.1,29.97,WNW,292,0.0,1.9,64,0.00,,,0.21,WUHU21623XXSP,2013-08-01 21:14:00,
2013-08-01 17:19:00,82.8,69.7,29.97,WNW,292,1.4,1.7,65,0.00,,,0.21,WUHU21623XXSP,2013-08-01 21:19:00,
2013-08-01 17:25:00,82.8,70.2,29.97,WNW,292,0.0,2.7,66,0.00,,,0.21,WUHU21623XXSP,2013-08-01 21:25:00,
2013-08-01 17:30:00,82.6,70.4,29.97,WNW,292,0.0,2.7,67,0.00,,,0.21,WUHU21623XXSP,2013-08-01 21:30:00,
2013-08-01 17:35:00,82.6,70.4,29.97,WNW,292,0.0,0.0,67,0.00,,,0.21,WUHU21623XXSP,2013-08-01 21:35:00,
2013-08-01 17:40:00,82.6,70.9,29.97,WNW,292,0.0,1.7,68,0.00,,,0.21,WUHU21623XXSP,2013-08-01 21:40:00,
2013-08-01 17:46:00,82.6,71.3,29.97,West,270,0.0,1.7,69,0.00,,,0.21,WUHU21623XXSP,2013-08-01 21:46:00,
2013-08-01 17:51:00,82.2,70.5,29.97,WNW,292,0.0,0.0,68,0.00,,,0.21,WUHU21623XXSP,2013-08-01 21:51:00,
2013-08-01 17:56:00,82.2,70.5,29.97,West,270,0.0,0.0,68,0.00,,,0.21,WUHU21623XXSP,2013-08-01 21:56:00,
2013-08-01 18:01:00,82.0,70.8,29.97,North,0,1.2,1.3,69,0.00,,,0.21,WUHU21623XXSP,2013-08-01 22:01:00,
2013-08-01 18:06:00,81.9,69.3,29.97,North,0,1.2,1.3,66,0.00,,,0.21,WUHU21623XXSP,2013-08-01 22:06:00,
2013-08-01 18:11:00,81.7,69.2,29.97,North,0,1.2,1.3,66,0.00,,,0.21,WUHU21623XXSP,2013-08-01 22:11:00,
2013-08-01 18:16:00,80.6,69.1,29.97,WNW,292,0.0,1.3,68,0.00,,,0.21,WUHU21623XXSP,2013-08-01 22:16:00,
2013-08-01 18:21:00,80.2,69.2,29.97,WNW,292,0.0,0.0,69,0.00,,,0.21,WUHU21623XXSP,2013-08-01 22:21:00,
2013-08-01 18:26:00,79.5,69.3,29.97,SSW,202,0.0,0.0,71,0.00,,,0.21,WUHU21623XXSP,2013-08-01 22:26:00,
2013-08-01 18:32:00,79.3,69.9,29.98,WNW,292,0.0,0.0,73,0.00,,,0.21,WUHU21623XXSP,2013-08-01 22:32:00,
2013-08-01 18:37:00,79.3,70.7,29.98,North,0,0.0,0.0,75,0.00,,,0.21,WUHU21623XXSP,2013-08-01 22:37:00,
2013-08-01 18:42:00,79.7,70.7,29.98,North,0,0.0,0.0,74,0.00,,,0.21,WUHU21623XXSP,2013-08-01 22:42:00,
2013-08-01 18:47:00,80.1,70.6,29.97,WNW,292,0.0,0.0,73,0.00,,,0.21,WUHU21623XXSP,2013-08-01 22:47:00,
2013-08-01 18:52:00,80.2,70.0,29.97,North,0,1.2,1.3,71,0.00,,,0.21,WUHU21623XXSP,2013-08-01 22:52:00,
2013-08-01 18:57:00,80.2,70.4,29.98,North,0,0.0,1.3,72,0.00,,,0.21,WUHU21623XXSP,2013-08-01 22:57:00,
2013-08-01 19:02:00,80.1,70.2,29.98,NNE,22,0.0,1.3,72,0.00,,,0.21,WUHU21623XXSP,2013-08-01 23:02:00,
2013-08-01 19:07:00,79.5,70.1,29.98,WNW,292,0.0,0.0,73,0.00,,,0.21,WUHU21623XXSP,2013-08-01 23:07:00,
2013-08-01 19:12:00,79.2,69.7,29.98,WNW,292,0.0,0.0,73,0.00,,,0.21,WUHU21623XXSP,2013-08-01 23:12:00,
2013-08-01 19:17:00,79.2,70.1,29.98,WNW,292,0.0,0.0,74,0.00,,,0.21,WUHU21623XXSP,2013-08-01 23:17:00,
2013-08-01 19:22:00,79.0,70.3,29.98,West,270,0.0,0.0,75,0.00,,,0.21,WUHU21623XXSP,2013-08-01 23:22:00,
2013-08-01 19:27:00,78.6,70.8,29.98,NNE,22,0.0,0.0,77,0.00,,,0.21,WUHU21623XXSP,2013-08-01 23:27:00,
2013-08-01 19:32:00,78.6,71.2,29.98,West,270,0.0,0.0,78,0.00,,,0.21,WUHU21623XXSP,2013-08-01 23:32:00,
2013-08-01 19:37:00,78.6,70.8,29.98,North,0,0.0,0.0,77,0.00,,,0.21,WUHU21623XXSP,2013-08-01 23:37:00,
2013-08-01 19:42:00,78.6,70.8,29.98,WNW,292,0.0,0.0,77,0.00,,,0.21,WUHU21623XXSP,2013-08-01 23:42:00,
2013-08-01 19:47:00,78.6,70.8,29.98,North,0,0.0,0.0,77,0.00,,,0.21,WUHU21623XXSP,2013-08-01 23:47:00,
2013-08-01 19:53:00,78.1,70.3,29.98,West,270,0.0,0.0,77,0.00,,,0.21,WUHU21623XXSP,2013-08-01 23:53:00,
2013-08-01 19:58:00,77.9,70.5,29.98,West,270,0.0,0.0,78,0.00,,,0.21,WUHU21623XXSP,2013-08-01 23:58:00,
2013-08-01 20:03:00,77.5,70.1,29.99,West,270,0.0,0.0,78,0.00,,,0.21,WUHU21623XXSP,2013-08-02 00:03:00,
2013-08-01 20:08:00,77.2,69.4,29.98,West,270,0.0,0.0,77,0.00,,,0.21,WUHU21623XXSP,2013-08-02 00:08:00,
2013-08-01 20:13:00,76.8,69.0,29.99,SSW,202,0.0,0.0,77,0.00,,,0.21,WUHU21623XXSP,2013-08-02 00:13:00,
2013-08-01 20:18:00,76.6,68.9,29.99,SSW,202,0.0,0.0,77,0.00,,,0.21,WUHU21623XXSP,2013-08-02 00:18:00,
2013-08-01 20:24:00,76.5,68.7,29.99,SSW,202,0.0,0.0,77,0.00,,,0.21,WUHU21623XXSP,2013-08-02 00:24:00,
2013-08-01 20:29:00,75.9,69.0,29.99,SSW,202,0.0,0.0,79,0.00,,,0.21,WUHU21623XXSP,2013-08-02 00:29:00,
2013-08-01 20:34:00,75.7,68.8,29.99,SSW,202,0.0,0.0,79,0.00,,,0.21,WUHU21623XXSP,2013-08-02 00:34:00,
2013-08-01 20:39:00,75.4,68.5,29.99,ESE,112,0.0,0.0,79,0.00,,,0.21,WUHU21623XXSP,2013-08-02 00:39:00,
2013-08-01 20:44:00,75.0,68.9,29.99,South,180,0.0,0.0,81,0.00,,,0.21,WUHU21623XXSP,2013-08-02 00:44:00,
2013-08-01 20:49:00,74.7,68.5,29.99,South,180,0.0,0.0,81,0.00,,,0.21,WUHU21623XXSP,2013-08-02 00:49:00,
2013-08-01 20:54:00,74.3,68.5,29.99,South,180,0.0,0.0,82,0.00,,,0.21,WUHU21623XXSP,2013-08-02 00:54:00,
2013-08-01 20:59:00,73.9,68.5,29.99,East,90,0.0,0.0,83,0.00,,,0.21,WUHU21623XXSP,2013-08-02 00:59:00,
2013-08-01 21:04:00,73.2,67.8,29.99,East,90,0.0,0.0,83,0.00,,,0.21,WUHU21623XXSP,2013-08-02 01:04:00,
2013-08-01 21:09:00,72.7,67.6,29.99,ESE,112,0.0,0.0,84,0.00,,,0.21,WUHU21623XXSP,2013-08-02 01:09:00,
2013-08-01 21:15:00,72.5,67.4,30.00,ESE,112,0.0,0.0,84,0.00,,,0.21,WUHU21623XXSP,2013-08-02 01:15:00,
2013-08-01 21:20:00,72.1,67.4,30.00,East,90,0.0,0.0,85,0.00,,,0.21,WUHU21623XXSP,2013-08-02 01:20:00,
2013-08-01 21:25:00,71.8,67.0,30.00,ESE,112,0.0,0.0,85,0.00,,,0.21,WUHU21623XXSP,2013-08-02 01:25:00,
2013-08-01 21:30:00,71.2,66.5,30.00,ESE,112,0.0,0.0,85,0.00,,,0.21,WUHU21623XXSP,2013-08-02 01:30:00,
2013-08-01 21:35:00,71.2,66.5,30.00,ESE,112,0.0,0.0,85,0.00,,,0.21,WUHU21623XXSP,2013-08-02 01:35:00,
2013-08-01 21:40:00,70.9,66.5,30.00,East,90,0.0,0.0,86,0.00,,,0.21,WUHU21623XXSP,2013-08-02 01:40:00,
2013-08-01 21:45:00,70.7,66.3,30.01,East,90,1.4,1.7,86,0.00,,,0.21,WUHU21623XXSP,2013-08-02 01:45:00,
2013-08-01 21:50:00,70.3,65.9,30.01,South,180,0.0,1.7,86,0.00,,,0.21,WUHU21623XXSP,2013-08-02 01:50:00,
2013-08-01 21:55:00,70.3,65.9,30.01,South,180,0.0,0.0,86,0.00,,,0.21,WUHU21623XXSP,2013-08-02 01:55:00,
2013-08-01 22:00:00,70.0,65.6,30.01,South,180,0.0,0.0,86,0.00,,,0.21,WUHU21623XXSP,2013-08-02 02:00:00,
2013-08-01 22:06:00,69.8,65.4,30.01,South,180,0.0,0.0,86,0.00,,,0.21,WUHU21623XXSP,2013-08-02 02:06:00,
2013-08-01 22:11:00,69.6,65.5,30.02,South,180,0.0,0.0,87,0.00,,,0.21,WUHU21623XXSP,2013-08-02 02:11:00,
2013-08-01 22:16:00,69.4,65.4,30.02,South,180,0.0,0.0,87,0.00,,,0.21,WUHU21623XXSP,2013-08-02 02:16:00,
2013-08-01 22:21:00,69.4,65.4,30.01,South,180,0.0,0.0,87,0.00,,,0.21,WUHU21623XXSP,2013-08-02 02:21:00,
2013-08-01 22:26:00,69.1,65.0,30.01,South,180,0.0,0.0,87,0.00,,,0.21,WUHU21623XXSP,2013-08-02 02:26:00,
2013-08-01 22:31:00,68.9,64.8,30.01,South,180,0.0,0.0,87,0.00,,,0.21,WUHU21623XXSP,2013-08-02 02:31:00,
2013-08-01 22:37:00,68.9,64.8,30.01,South,180,0.0,0.0,87,0.00,,,0.21,WUHU21623XXSP,2013-08-02 02:37:00,
2013-08-01 22:42:00,68.7,64.7,30.02,South,180,0.0,0.0,87,0.00,,,0.21,WUHU21623XXSP,2013-08-02 02:42:00,
2013-08-01 22:47:00,68.5,64.5,30.02,South,180,0.0,0.0,87,0.00,,,0.21,WUHU21623XXSP,2013-08-02 02:47:00,
2013-08-01 22:52:00,68.4,64.6,30.02,East,90,0.0,1.3,88,0.00,,,0.21,WUHU21623XXSP,2013-08-02 02:52:00,
2013-08-01 22:57:00,68.4,64.6,30.02,East,90,0.0,1.3,88,0.00,,,0.21,WUHU21623XXSP,2013-08-02 02:57:00,
2013-08-01 23:02:00,68.4,64.6,30.02,South,180,0.0,0.0,88,0.00,,,0.21,WUHU21623XXSP,2013-08-02 03:02:00,
2013-08-01 23:07:00,68.0,64.3,30.02,East,90,0.0,0.0,88,0.00,,,0.21,WUHU21623XXSP,2013-08-02 03:07:00,
2013-08-01 23:12:00,67.8,64.1,30.02,ESE,112,0.0,0.0,88,0.00,,,0.21,WUHU21623XXSP,2013-08-02 03:12:00,
2013-08-01 23:17:00,67.8,64.1,30.02,East,90,0.0,0.0,88,0.00,,,0.21,WUHU21623XXSP,2013-08-02 03:17:00,
2013-08-01 23:23:00,67.6,63.9,30.03,South,180,0.0,0.0,88,0.00,,,0.21,WUHU21623XXSP,2013-08-02 03:23:00,
2013-08-01 23:28:00,67.6,63.9,30.03,East,90,0.0,0.0,88,0.00,,,0.21,WUHU21623XXSP,2013-08-02 03:28:00,
2013-08-01 23:33:00,67.5,63.8,30.03,East,90,0.0,0.0,88,0.00,,,0.21,WUHU21623XXSP,2013-08-02 03:33:00,
2013-08-01 23:38:00,67.3,63.6,30.03,South,180,0.0,0.0,88,0.00,,,0.21,WUHU21623XXSP,2013-08-02 03:38:00,
2013-08-01 23:43:00,67.3,63.6,30.03,East,90,0.0,0.0,88,0.00,,,0.21,WUHU21623XXSP,2013-08-02 03:43:00,
2013-08-01 23:48:00,67.3,63.6,30.03,East,90,0.0,0.0,88,0.00,,,0.21,WUHU21623XXSP,2013-08-02 03:48:00,
2013-08-01 23:53:00,67.3,63.6,30.03,East,90,0.0,0.0,88,0.00,,,0.21,WUHU21623XXSP,2013-08-02 03:53:00,
2013-08-01 23:58:00,67.3,63.6,30.03,ESE,112,0.0,0.0,88,0.00,,,0.21,WUHU21623XXSP,2013-08-02 03:58:00,